YO6IKB-10 Weather Reports


Display with metric or nautical units.
time (UTC)temp
F
wind
direction
speed
MPH
gust
MPH
rain 1hr
in
rain 24hr
in
rain mn
in
humidity
%
barometer
mb
20260510045927 53 292 0.0 1.0 0.02 0.87 0.00 92 1012.5
20260510045427 53 292 0.0 2.0 0.02 0.87 0.00 92 1012.6
20260510044927 53 292 1.0 2.0 0.02 0.87 0.00 92 1012.5
20260510044426 53 292 2.0 3.0 0.02 0.87 0.00 92 1012.5
20260510043926 53 292 0.0 4.0 0.02 0.87 0.00 92 1012.5
20260510043426 53 292 1.0 1.0 0.02 0.87 0.00 92 1012.6
20260510042925 52 292 0.0 3.0 0.02 0.87 0.00 92 1012.6
20260510042425 52 292 0.0 3.0 0.04 0.87 0.00 92 1012.5
20260510041925 52 315 0.0 2.0 0.04 0.87 0.00 92 1012.5
20260510041425 52 315 0.0 4.0 0.04 0.87 0.00 92 1012.5
20260510040924 52 315 4.0 6.0 0.04 0.87 0.00 92 1012.4
20260510040424 52 292 5.0 5.0 0.02 0.85 0.00 92 1012.3
20260510035924 52 292 3.0 3.0 0.04 0.85 0.00 92 1012.3
20260510035423 52 292 2.0 4.0 0.04 0.85 0.00 92 1012.2
20260510034923 52 292 2.0 4.0 0.04 0.85 0.00 92 1012.1
20260510034423 52 292 2.0 3.0 0.04 0.85 0.00 92 1012.2
20260510033922 52 292 2.0 3.0 0.04 0.85 0.00 92 1012.1
20260510033422 52 292 2.0 2.0 0.04 0.85 0.00 92 1012.1
20260510032922 52 292 1.0 1.0 0.04 0.85 0.00 92 1012.0
20260510032422 52 292 0.0 2.0 0.02 0.83 0.00 92 1012.0
20260510031921 52 292 0.0 1.0 0.02 0.83 0.00 92 1011.9
20260510031421 52 292 0.0 0.0 0.02 0.83 0.00 92 1011.8
20260510030921 52 292 0.0 0.0 0.04 0.83 0.00 92 1011.8
20260510030420 52 292 0.0 0.0 0.02 0.81 0.00 92 1011.8
20260510025920 52 292 0.0 1.0 0.02 0.81 0.00 92 1011.8
20260510025420 52 292 1.0 2.0 0.04 0.81 0.00 92 1011.8
20260510024920 52 292 1.0 2.0 0.04 0.81 0.00 92 1011.8
20260510024419 52 292 1.0 2.0 0.04 0.81 0.00 92 1011.8
20260510023919 52 292 0.0 3.0 0.04 0.81 0.00 92 1011.8
20260510023419 52 292 0.0 3.0 0.06 0.81 0.00 92 1011.7
20260510022918 52 292 1.0 3.0 0.06 0.81 0.00 92 1011.7
20260510022418 52 292 3.0 5.0 0.08 0.81 0.00 92 1011.6
20260510021918 52 202 0.0 5.0 0.08 0.81 0.00 92 1011.6
20260510021417 52 292 1.0 2.0 0.08 0.81 0.00 92 1011.8
20260510020917 52 292 1.0 5.0 0.08 0.79 0.00 92 1011.7
20260510020417 52 292 1.0 6.0 0.08 0.79 0.00 92 1011.8
20260510015917 52 292 3.0 5.0 0.08 0.79 0.00 92 1011.8
20260510015416 52 292 5.0 6.0 0.06 0.77 0.00 92 1011.9
20260510014916 52 292 4.0 5.0 0.08 0.77 0.00 92 1011.9
20260510014416 52 292 2.0 6.0 0.08 0.77 0.00 92 1011.8
20260510013915 52 292 6.0 8.0 0.06 0.75 0.00 92 1011.8
20260510013415 52 292 3.0 7.0 0.08 0.75 0.00 92 1011.8
20260510012915 52 292 4.0 7.0 0.08 0.75 0.00 92 1011.8
20260510012415 52 292 1.0 7.0 0.06 0.73 0.00 92 1011.8
20260510011914 52 292 3.0 6.0 0.06 0.73 0.00 92 1011.8
20260510011414 52 292 1.0 5.0 0.04 0.71 0.00 92 1011.7
20260510010914 52 292 1.0 6.0 0.04 0.71 0.00 92 1011.7
20260510010413 52 292 3.0 7.0 0.06 0.71 0.00 92 1011.7
20260510005913 52 292 2.0 7.0 0.06 0.71 0.00 92 1011.7
20260510005413 52 292 3.0 9.0 0.06 0.71 0.00 92 1011.7
20260510004912 52 247 9.0 10.0 0.06 0.69 0.00 92 1011.6
20260510004412 52 292 3.0 8.0 0.06 0.69 0.00 92 1011.6
20260510003912 53 315 2.0 8.0 0.04 0.67 0.00 92 1011.6
20260510003412 53 315 4.0 6.0 0.04 0.67 0.00 92 1011.5
20260510002911 53 247 4.0 8.0 0.04 0.67 0.00 92 1011.5
20260510002411 53 292 2.0 10.0 0.04 0.67 0.00 92 1011.5
20260510001911 53 315 3.0 8.0 0.04 0.67 0.00 92 1011.6
20260510001410 53 247 4.0 7.0 0.04 0.67 0.00 92 1011.5
20260510000910 53 315 3.0 8.0 0.04 0.65 0.00 92 1011.5
20260510000411 53 225 4.0 5.0 0.04 0.65 0.00 92 1011.4
20260509235910 53 247 5.0 5.0 0.04 0.65 0.00 92 1011.4
20260509235409 53 292 1.0 4.0 0.04 0.65 0.00 92 1011.5
20260509234909 53 292 1.0 4.0 0.02 0.63 0.00 92 1011.6
20260509234409 53 292 0.0 9.0 0.02 0.63 0.00 92 1011.6
20260509233908 53 315 9.0 9.0 0.02 0.63 0.00 92 1011.6
20260509233408 53 315 2.0 7.0 0.02 0.63 0.00 92 1011.7
20260509232908 53 292 3.0 6.0 0.04 0.63 0.00 92 1011.7
20260509232408 53 292 2.0 4.0 0.06 0.63 0.00 92 1011.7
20260509231907 53 292 1.0 4.0 0.08 0.63 0.00 92 1011.7
20260509231407 53 247 3.0 5.0 0.08 0.61 0.00 92 1011.7
20260509230907 53 315 2.0 4.0 0.10 0.61 0.00 92 1011.8
20260509230406 53 292 0.0 3.0 0.10 0.61 0.00 92 1011.9
20260509225906 53 315 0.0 2.0 0.10 0.61 0.00 92 1011.9
20260509225406 53 315 0.0 2.0 0.12 0.61 0.00 92 1011.9
20260509224905 53 315 2.0 3.0 0.12 0.61 0.00 92 1011.9
20260509224405 53 315 0.0 3.0 0.12 0.61 0.00 92 1011.9
20260509223905 53 315 1.0 4.0 0.12 0.61 0.00 92 1011.9
20260509223405 53 315 1.0 3.0 0.10 0.59 0.00 92 1012.0
20260509222904 53 315 2.0 4.0 0.12 0.59 0.00 92 1012.0
20260509222404 53 292 3.0 6.0 0.08 0.55 0.00 92 1012.0
20260509221904 53 292 2.0 6.0 0.08 0.55 0.00 92 1011.9
20260509221403 53 315 2.0 3.0 0.04 0.50 0.00 92 1011.9
20260509220903 53 315 3.0 3.0 0.06 0.50 0.00 91 1011.9
20260509220403 53 315 1.0 4.0 0.06 0.50 0.00 91 1011.9
20260509215903 53 225 0.0 5.0 0.06 0.48 0.00 91 1012.0
20260509215402 53 202 4.0 7.0 0.06 0.48 0.00 91 1012.0
20260509214902 53 292 0.0 2.0 0.06 0.48 0.00 91 1012.0
20260509214402 53 292 1.0 2.0 0.06 0.48 0.00 91 1012.0
20260509213901 53 292 2.0 2.0 0.06 0.48 0.00 91 1011.9
20260509213401 53 292 2.0 3.0 0.04 0.46 0.00 91 1012.0
20260509212901 53 292 2.0 2.0 0.06 0.48 0.00 91 1012.0
20260509212400 53 292 0.0 3.0 0.06 0.48 0.00 91 1012.1
20260509211900 53 292 0.0 4.0 0.08 0.48 0.00 91 1012.1
20260509211400 53 292 0.0 3.0 0.08 0.48 0.00 91 1012.0
20260509210900 53 292 3.0 3.0 0.06 0.46 0.00 91 1012.1
20260509210359 53 292 2.0 5.0 0.06 0.46 0.00 91 1012.1
20260509205859 53 292 1.0 4.0 0.04 0.44 0.00 91 1012.0
20260509205359 53 292 3.0 6.0 0.06 0.44 0.00 91 1012.1
20260509204858 53 292 0.0 6.0 0.06 0.44 0.00 91 1012.0
20260509204358 53 292 6.0 6.0 0.08 0.44 0.00 91 1012.1
20260509203858 53 292 0.0 4.0 0.08 0.44 0.00 91 1012.0
20260509203358 53 292 1.0 4.0 0.08 0.42 0.00 91 1012.0
20260509202857 54 292 2.0 8.0 0.08 0.44 0.00 91 1012.0
20260509202357 54 292 1.0 5.0 0.08 0.44 0.00 91 1012.1
20260509201857 54 292 3.0 10.0 0.06 0.42 0.00 91 1012.0
20260509201356 54 247 1.0 7.0 0.06 0.42 0.00 91 1011.9
20260509200856 54 225 3.0 5.0 0.06 0.42 0.00 91 1011.9
20260509200356 54 292 0.0 4.0 0.08 0.42 0.00 91 1011.9
20260509195856 54 292 1.0 4.0 0.06 0.40 0.00 91 1011.9
20260509195355 54 315 0.0 3.0 0.08 0.40 0.00 91 1011.9
20260509194855 55 315 0.0 2.0 0.08 0.40 0.00 91 1011.9
20260509194355 55 315 0.0 4.0 0.06 0.38 0.00 91 1011.9
20260509193854 55 0 2.0 4.0 0.06 0.38 0.00 91 1011.9
20260509193354 55 22 2.0 6.0 0.04 0.36 0.00 90 1011.8
20260509192854 55 0 2.0 3.0 0.04 0.38 0.00 90 1011.8
20260509192353 55 0 1.0 3.0 0.04 0.38 0.00 100 1011.7
20260509191853 55 0 1.0 3.0 0.04 0.38 0.00 91 1011.6
20260509191353 56 337 1.0 3.0 0.04 0.38 0.00 91 1011.7
20260509190853 56 0 1.0 3.0 0.04 0.38 0.00 91 1011.7
20260509190352 56 0 1.0 4.0 0.02 0.36 0.00 91 1011.6
20260509185852 56 337 4.0 4.0 0.00 0.34 0.00 90 1011.7
20260509185352 56 337 2.0 3.0 0.00 0.34 0.00 90 1011.6
20260509184851 56 0 1.0 5.0 0.00 0.34 0.00 90 1011.4
20260509184351 56 337 2.0 4.0 0.00 0.34 0.00 90 1011.5
20260509183851 57 292 4.0 4.0 0.00 0.34 0.00 90 1011.4
20260509183351 57 292 2.0 2.0 0.00 0.34 0.00 90 1011.4
20260509182850 57 292 1.0 3.0 0.00 0.36 0.00 90 1011.3
20260509182350 57 292 2.0 2.0 0.00 0.36 0.00 90 1011.3
20260509181850 57 292 1.0 4.0 0.00 0.36 0.00 90 1011.3
20260509181349 57 292 2.0 3.0 0.00 0.36 0.00 90 1011.3
20260509180849 57 292 0.0 4.0 0.00 0.36 0.00 90 1011.1
20260509180349 57 315 3.0 3.0 0.00 0.36 0.00 90 1011.1
20260509175848 57 292 1.0 2.0 0.00 0.36 0.00 90 1011.0
20260509175348 57 292 2.0 2.0 0.00 0.36 0.00 90 1011.0
20260509174848 57 292 2.0 2.0 0.00 0.36 0.00 90 1010.9
20260509174348 57 292 2.0 2.0 0.00 0.36 0.00 90 1010.8
20260509173847 57 315 2.0 2.0 0.00 0.36 0.00 90 1010.9
20260509173347 57 315 1.0 2.0 0.00 0.36 0.00 90 1010.8
20260509172847 57 315 1.0 3.0 0.00 0.36 0.00 90 1010.8
20260509172346 57 315 1.0 2.0 0.00 0.36 0.00 89 1010.8
20260509171846 57 315 0.0 4.0 0.00 0.36 0.00 89 1010.8
20260509171346 57 337 0.0 2.0 0.00 0.36 0.00 89 1010.7
20260509170846 57 337 0.0 2.0 0.00 0.36 0.00 89 1010.7
20260509170345 57 337 0.0 1.0 0.00 0.36 0.00 89 1010.6
20260509165845 57 337 0.0 1.0 0.00 0.36 0.00 89 1010.5
20260509165345 57 337 1.0 3.0 0.00 0.36 0.00 89 1010.5
20260509164844 57 337 1.0 3.0 0.00 0.36 0.00 89 1010.5
20260509164344 57 0 1.0 2.0 0.00 0.36 0.00 89 1010.4
20260509163844 57 22 0.0 2.0 0.00 0.36 0.00 89 1010.4
20260509163343 58 22 1.0 1.0 0.00 0.36 0.00 89 1010.3
20260509162843 58 22 1.0 1.0 0.00 0.36 0.00 89 1010.2
20260509162343 57 22 0.0 1.0 0.00 0.36 0.00 89 1010.2
20260509161843 57 22 1.0 1.0 0.00 0.36 0.00 89 1010.2
20260509161342 57 45 0.0 1.0 0.00 0.36 0.00 89 1010.2
20260509160842 57 22 1.0 2.0 0.00 0.36 0.00 89 1010.2
20260509160342 57 22 0.0 2.0 0.00 0.36 0.00 89 1010.2
20260509155841 58 22 2.0 2.0 0.00 0.36 0.00 89 1010.2
20260509155341 58 45 0.0 1.0 0.00 0.36 0.00 89 1010.1
20260509154841 58 45 0.0 2.0 0.00 0.36 0.00 89 1010.1
20260509154341 58 45 1.0 2.0 0.00 0.36 0.00 89 1010.0
20260509153840 58 45 2.0 2.0 0.00 0.36 0.00 89 1009.9
20260509153340 58 45 0.0 0.0 0.00 0.36 0.00 89 1010.0
20260509152840 57 45 0.0 0.0 0.00 0.36 0.00 89 1010.0
20260509152339 57 45 0.0 3.0 0.00 0.36 0.00 89 1010.0
20260509151839 58 67 1.0 5.0 0.00 0.36 0.00 88 1010.0
20260509151339 58 67 1.0 3.0 0.02 0.36 0.00 88 1010.0
20260509150838 58 67 1.0 4.0 0.02 0.36 0.00 88 1010.0
20260509150338 58 22 2.0 4.0 0.02 0.36 0.00 88 1010.0
20260509145838 58 67 3.0 4.0 0.02 0.36 0.00 88 1009.8
20260509145338 58 337 2.0 4.0 0.02 0.36 0.00 88 1009.8
20260509144837 58 45 2.0 5.0 0.02 0.36 0.00 88 1009.9
20260509144337 58 67 1.0 6.0 0.02 0.36 0.00 89 1009.9
20260509143837 58 22 4.0 4.0 0.02 0.36 0.00 89 1009.9
20260509143336 58 0 1.0 2.0 0.02 0.36 0.00 89 1009.9
20260509142836 57 22 2.0 3.0 0.02 0.36 0.00 88 1009.9
20260509142336 57 45 1.0 3.0 0.02 0.36 0.00 88 1009.9
20260509141836 57 45 1.0 4.0 0.02 0.36 0.00 88 1009.9
20260509141335 58 45 1.0 4.0 0.00 0.34 0.00 87 1009.9
20260509140835 58 45 3.0 6.0 0.00 0.34 0.00 87 1009.9
20260509140335 58 45 3.0 6.0 0.00 0.34 0.00 87 1009.8
20260509135834 58 67 3.0 8.0 0.00 0.34 0.00 87 1009.6
20260509135334 59 45 4.0 7.0 0.00 0.34 0.00 87 1009.6
20260509134834 59 45 7.0 7.0 0.00 0.34 0.00 88 1009.7
20260509134333 59 45 7.0 8.0 0.00 0.34 0.00 88 1009.6
20260509133833 58 45 2.0 7.0 0.00 0.34 0.00 89 1009.6
20260509133333 58 22 0.0 4.0 0.00 0.34 0.00 89 1009.6
20260509132833 58 0 0.0 4.0 0.00 0.34 0.00 89 1009.6
20260509132332 58 45 2.0 6.0 0.00 0.34 0.00 89 1009.5
20260509131832 58 45 1.0 4.0 0.00 0.34 0.00 89 1009.7
20260509131332 58 337 0.0 6.0 0.02 0.34 0.00 89 1009.7
20260509130831 58 337 2.0 4.0 0.02 0.34 0.00 89 1009.7
20260509130331 58 337 0.0 5.0 0.02 0.34 0.00 89 1009.6
20260509125831 58 0 2.0 6.0 0.04 0.34 0.00 90 1009.8
20260509125331 58 22 1.0 6.0 0.14 0.34 0.00 90 1009.8
20260509124830 58 22 3.0 8.0 0.14 0.34 0.00 90 1009.9
20260509124330 58 45 1.0 3.0 0.16 0.34 0.00 90 1009.9
20260509123830 58 45 0.0 6.0 0.16 0.34 0.00 90 1010.0
20260509123329 58 45 2.0 5.0 0.18 0.34 0.00 90 1010.1
20260509122829 57 45 2.0 5.0 0.18 0.34 0.00 90 1010.0
20260509122329 58 45 4.0 5.0 0.18 0.34 0.00 89 1010.2
20260509121828 57 0 2.0 2.0 0.18 0.34 0.00 89 1010.1
20260509121328 57 0 2.0 3.0 0.16 0.32 0.00 89 1010.1
20260509120828 57 337 0.0 3.0 0.16 0.32 0.00 89 1010.3
20260509120328 57 337 3.0 4.0 0.14 0.30 0.00 89 1010.5
20260509115827 58 337 1.0 6.0 0.10 0.26 0.00 89 1010.4
20260509115327 58 22 2.0 8.0 0.04 0.20 0.00 88 1010.6
20260509114827 58 22 5.0 7.0 0.02 0.18 0.00 88 1010.5
20260509114326 59 22 3.0 7.0 0.02 0.18 0.00 88 1010.5
20260509113826 59 0 4.0 4.0 0.00 0.16 0.00 88 1010.5
20260509113326 59 45 1.0 8.0 0.02 0.16 0.00 87 1010.4
20260509112826 59 45 4.0 6.0 0.02 0.22 0.00 88 1010.4
20260509112325 59 22 3.0 6.0 0.02 0.22 0.00 88 1010.4
20260509111825 59 22 4.0 5.0 0.02 0.22 0.00 88 1010.4
20260509111325 59 45 1.0 5.0 0.02 0.22 0.00 88 1010.3
20260509110824 59 45 2.0 5.0 0.02 0.22 0.00 88 1010.3
20260509110324 59 22 2.0 5.0 0.02 0.22 0.00 88 1010.3
20260509105824 59 22 2.0 4.0 0.02 0.22 0.00 89 1010.4
20260509105323 59 22 0.0 2.0 0.02 0.22 0.00 88 1010.4
20260509104823 59 45 0.0 8.0 0.04 0.22 0.00 88 1010.4
20260509104323 59 315 8.0 8.0 0.04 0.22 0.00 88 1010.3
20260509103823 59 45 1.0 5.0 0.02 0.20 0.00 88 1010.4
20260509103322 59 45 4.0 7.0 0.02 0.20 0.00 89 1010.5
20260509102822 59 0 0.0 3.0 0.04 0.20 0.00 90 1010.5
20260509102322 59 0 2.0 3.0 0.04 0.20 0.00 90 1010.6
20260509101821 59 22 1.0 2.0 0.04 0.20 0.00 90 1010.7
20260509101321 58 22 2.0 4.0 0.04 0.20 0.00 90 1010.7
20260509100821 58 45 2.0 4.0 0.04 0.20 0.00 90 1010.8
20260509100321 58 45 3.0 6.0 0.04 0.20 0.00 89 1010.8
20260509095820 57 67 0.0 6.0 0.06 0.20 0.00 89 1010.9
20260509095320 57 45 4.0 6.0 0.06 0.20 0.00 89 1010.9
20260509094820 57 45 4.0 8.0 0.04 0.18 0.00 89 1010.9
20260509094319 57 45 4.0 4.0 0.04 0.18 0.00 89 1010.9
20260509093819 57 45 1.0 5.0 0.04 0.18 0.00 89 1010.9
20260509093319 57 67 4.0 5.0 0.04 0.18 0.00 89 1010.9
20260509092818 57 45 2.0 4.0 0.02 0.16 0.00 89 1010.9
20260509092318 57 22 3.0 7.0 0.02 0.16 0.00 88 1011.0
20260509091818 57 45 1.0 3.0 0.02 0.16 0.00 88 1011.0
20260509091318 58 22 0.0 6.0 0.02 0.16 0.00 87 1011.1
20260509090817 58 0 6.0 6.0 0.02 0.16 0.00 87 1011.1
20260509090317 58 0 0.0 4.0 0.02 0.16 0.00 87 1011.0
20260509085817 59 45 2.0 5.0 0.00 0.14 0.00 87 1011.0
20260509085316 59 0 1.0 6.0 0.00 0.14 0.00 87 1011.1
20260509084816 59 337 6.0 7.0 0.00 0.14 0.00 87 1011.1
20260509084316 59 22 2.0 4.0 0.00 0.14 0.00 88 1011.1
20260509083816 58 0 2.0 3.0 0.00 0.14 0.00 88 1011.1
20260509083315 58 45 1.0 3.0 0.00 0.14 0.00 88 1011.1
20260509082815 58 45 1.0 5.0 0.00 0.14 0.00 88 1011.1
20260509082315 58 45 1.0 6.0 0.00 0.14 0.00 88 1011.1
20260509081814 58 67 3.0 7.0 0.00 0.14 0.00 88 1011.2
20260509081314 58 45 4.0 4.0 0.00 0.14 0.00 88 1011.2
20260509080814 58 45 2.0 7.0 0.00 0.14 0.00 87 1011.2
20260509080314 58 45 3.0 6.0 0.00 0.14 0.00 87 1011.2
20260509075813 58 45 2.0 4.0 0.00 0.14 0.00 86 1011.2
20260509075313 58 67 4.0 5.0 0.00 0.14 0.00 86 1011.3
20260509074813 58 67 2.0 6.0 0.00 0.14 0.00 86 1011.2
20260509074312 58 45 3.0 8.0 0.00 0.14 0.00 86 1011.2
20260509073812 58 45 5.0 11.0 0.00 0.14 0.00 86 1011.2
20260509073312 58 45 3.0 6.0 0.00 0.14 0.00 86 1011.1
20260509072811 58 45 2.0 5.0 0.00 0.14 0.00 86 1011.1
20260509072311 58 67 3.0 5.0 0.00 0.14 0.00 85 1011.1
20260509071811 58 67 5.0 6.0 0.00 0.14 0.00 85 1011.1
20260509071311 58 67 3.0 5.0 0.00 0.14 0.00 85 1011.2
20260509070810 58 45 4.0 5.0 0.00 0.14 0.00 85 1011.2
20260509070310 58 45 1.0 5.0 0.00 0.14 0.00 84 1011.3
20260509065810 58 45 1.0 3.0 0.00 0.14 0.00 84 1011.3
20260509065309 58 45 2.0 5.0 0.00 0.14 0.00 84 1011.3
20260509064809 58 90 2.0 4.0 0.00 0.14 0.00 84 1011.2
20260509064309 58 67 0.0 2.0 0.00 0.14 0.00 84 1011.2
20260509063808 58 67 1.0 3.0 0.00 0.14 0.00 84 1011.2
20260509063308 58 67 1.0 2.0 0.00 0.14 0.00 83 1011.2
20260509062808 59 67 0.0 2.0 0.00 0.14 0.00 83 1011.2
20260509062308 59 67 1.0 2.0 0.00 0.14 0.00 83 1011.1
20260509061807 59 67 0.0 3.0 0.00 0.14 0.00 83 1011.2
20260509061307 59 67 0.0 2.0 0.00 0.14 0.00 83 1011.2
20260509060807 59 67 1.0 2.0 0.00 0.14 0.00 83 1011.2
20260509060306 60 67 0.0 2.0 0.00 0.14 0.00 83 1011.2
20260509055806 60 67 0.0 0.0 0.00 0.14 0.00 84 1011.2
20260509055307 60 67 0.0 2.0 0.00 0.14 0.00 84 1011.2
20260509054806 60 67 0.0 1.0 0.00 0.14 0.00 84 1011.1
20260509054305 59 67 1.0 2.0 0.00 0.14 0.00 84 1011.1
20260509053805 59 67 0.0 3.0 0.00 0.14 0.00 85 1011.1
20260509053305 59 67 0.0 0.0 0.00 0.14 0.00 85 1011.1
20260509052804 59 67 0.0 0.0 0.00 0.14 0.00 85 1011.1
20260509052307 59 67 0.0 0.0 0.00 0.14 0.00 84 1011.1
20260509051804 59 67 0.0 0.0 0.00 0.14 0.00 84 1011.1
20260509051304 59 67 0.0 0.0 0.00 0.14 0.00 84 1011.1
20260509050803 59 67 0.0 2.0 0.00 0.14 0.00 84 1011.1
20260509050303 59 67 1.0 2.0 0.00 0.14 0.00 84 1011.1